Weather History for KCDW - February, 2012

Change the Weather History Date:

Thursday, February 23, 2012

  Actual Average Record
Temperature  
Mean Temperature 48 °F -  
Max Temperature 57 °F 47 °F 65 °F (1974)
Min Temperature 39 °F 24 °F 1 °F (1972)
Degree Days  
Heating Degree Days 17    
Moisture  
Dew Point 30 °F    
Average Humidity 53    
Maximum Humidity 82    
Minimum Humidity 34    
Precipitation  
Precipitation 0.00 in - - ()
Sea Level Pressure  
Sea Level Pressure 29.58 in    
Wind  
Wind Speed 4 mph (NW)    
Max Wind Speed 15 mph    
Max Gust Speed 25 mph    
Visibility 10 miles    
Events      
Averages and records for this station are not official NWS values.
T = Trace of Precipitation, MM = Missing Value Source: NWS Daily Summary

Daily Weather History Graph

Daily Weather History Graph

Search for Another Location

Airport or City:

Trip Planner

Search our weather history database for the weather conditions in past years. The results will help you decide how hot, cold, wet, or windy it might be!

Date:

Astronomy

Feb. 23, 2012 Rise Set
Actual Time 6:40 AM EST 5:40 PM EST
Civil Twilight 6:13 AM EST 6:08 PM EST
Nautical Twilight 5:41 AM EST 6:40 PM EST
Astronomical Twilight 5:09 AM EST 7:12 PM EST
Moon 7:05 AM EST (2/23) 7:45 PM EST (2/23)
Length of Visible Light 11h 55m
Length of Day
10h 59m
Waxing Crescent, 3% of the Moon is Illuminated
Feb 23
Waxing Crescent
Feb 29
First Quarter
Mar 8
Full
Mar 14
Last Quarter
Mar 22
New

Hourly Weather History & Observations

Time (EST) Temp. Windchill Dew Point Humidity Pressure Visibility Wind Dir Wind Speed Gust Speed Precip Events Conditions
12:53 AM 45.0 °F - 36.0 °F 71% 29.47 in 10.0 mi Calm Calm - N/A   Clear
1:53 AM 43.0 °F - 36.0 °F 76% 29.45 in 10.0 mi Calm Calm - N/A   Clear
2:53 AM 42.1 °F - 35.1 °F 76% 29.43 in 10.0 mi Calm Calm - N/A   Clear
3:53 AM 41.0 °F - 35.1 °F 79% 29.42 in 10.0 mi Calm Calm - N/A   Clear
4:53 AM 39.9 °F - 34.0 °F 79% 29.42 in 10.0 mi Calm Calm - N/A   Overcast
5:53 AM 39.0 °F 36.8 °F 34.0 °F 82% 29.42 in 10.0 mi South 3.5 mph - N/A   Mostly Cloudy
6:53 AM 39.0 °F - 34.0 °F 82% 29.43 in 10.0 mi Calm Calm - N/A   Clear
7:53 AM 45.0 °F 42.6 °F 36.0 °F 71% 29.46 in 10.0 mi SW 4.6 mph - N/A   Partly Cloudy
8:53 AM 52.0 °F - 36.0 °F 54% 29.48 in 10.0 mi West 11.5 mph 17.3 mph N/A   Clear
9:53 AM 55.0 °F - 35.1 °F 47% 29.50 in 10.0 mi WNW 11.5 mph - N/A   Clear
10:53 AM 57.0 °F - 30.9 °F 37% 29.51 in 10.0 mi WNW 13.8 mph 25.3 mph N/A   Scattered Clouds
11:53 AM 57.0 °F - 30.0 °F 36% 29.53 in 10.0 mi WNW 15.0 mph 24.2 mph N/A   Mostly Cloudy
12:53 PM 55.0 °F - 30.0 °F 38% 29.55 in 10.0 mi NNW 11.5 mph 25.3 mph N/A   Mostly Cloudy
1:53 PM 55.0 °F - 28.0 °F 35% 29.57 in 10.0 mi NNW 11.5 mph 21.9 mph N/A   Mostly Cloudy
2:53 PM 54.0 °F - 26.1 °F 34% 29.60 in 10.0 mi NW 9.2 mph 20.7 mph N/A   Clear
3:53 PM 53.1 °F - 25.0 °F 34% 29.64 in 10.0 mi NNW 9.2 mph 16.1 mph N/A   Scattered Clouds
4:53 PM 52.0 °F - 25.0 °F 35% 29.68 in 10.0 mi NW 9.2 mph - N/A   Clear
5:53 PM 50.0 °F - 25.0 °F 38% 29.70 in 10.0 mi Variable 3.5 mph - N/A   Clear
6:53 PM 46.9 °F - 25.0 °F 42% 29.72 in 10.0 mi Calm Calm - N/A   Clear
7:53 PM 46.0 °F - 25.0 °F 44% 29.73 in 10.0 mi Calm Calm - N/A   Clear
8:53 PM 45.0 °F 42.6 °F 25.0 °F 46% 29.77 in 10.0 mi East 4.6 mph - N/A   Partly Cloudy
9:53 PM 45.0 °F - 25.0 °F 46% 29.78 in 10.0 mi Calm Calm - N/A   Mostly Cloudy
10:53 PM 45.0 °F 42.6 °F 25.0 °F 46% 29.79 in 10.0 mi ENE 4.6 mph - N/A   Overcast
11:53 PM 45.0 °F 41.8 °F 24.1 °F 44% 29.75 in 10.0 mi East 5.8 mph - N/A   Overcast